Jersey, United Kingdom

9:47 PM BST on September 28, 2016 (GMT +0100)
Jersey

Weather History for EGJJ - October, 2012

Change the Weather History Date:

Saturday, October 20, 2012

  Actual Average Record
Temperature  
Mean Temperature 54 °F -  
Max Temperature 58 °F 57 °F 64 °F (2004)
Min Temperature 50 °F 50 °F 44 °F (1999)
Degree Days  
Heating Degree Days 11    
Growing Degree Days 4 (Base 50)    
Moisture  
Dew Point 53 °F    
Average Humidity 94    
Maximum Humidity 100    
Minimum Humidity 84    
Precipitation  
Precipitation 0.00 in - - ()
Sea Level Pressure  
Sea Level Pressure 29.99 in    
Wind  
Wind Speed 4 mph ()    
Max Wind Speed 8 mph    
Max Gust Speed -    
Visibility 6.7 miles    
Events Rain    
Averages and records for this station are not official NWS values.
T = Trace of Precipitation, MM = Missing Value Source: Averaged Metar Reports

Daily Weather History Graph

Daily Weather History Graph

Search for Another Location

Airport or City:

Trip Planner

Search our weather history database for the weather conditions in past years. The results will help you decide how hot, cold, wet, or windy it might be!

Date:

Astronomy

Oct. 20, 2012 Rise Set
Actual Time 7:37 AM BST 6:08 PM BST
Civil Twilight 7:05 AM BST 6:40 PM BST
Nautical Twilight 6:28 AM BST 7:17 PM BST
Astronomical Twilight 5:51 AM BST 7:54 PM BST
Moon 1:18 PM BST (10/20) 10:22 PM BST (10/20)
Length of Visible Light 11h 35m
Length of Day
10h 30m
Waxing Crescent, 31% of the Moon is Illuminated
Oct 20
Waxing Crescent
Oct 22
First Quarter
Oct 29
Full
Nov 7
Last Quarter
Nov 13
New

Hourly Weather History & Observations

Time (BST) Temp. Dew Point Humidity Pressure Visibility Wind Dir Wind Speed Gust Speed Precip Events Conditions
1:00 AM 52 °F 51 °F 96% 29.91 in 28 mi WSW 2.3 mph - -   Partly Cloudy
3:50 AM 51.8 °F 51.8 °F 100% 29.92 in 6.2 mi SSE 4.6 mph - N/A   Scattered Clouds
4:00 AM 52 °F 51 °F 97% 29.93 in 28 mi SSE 5.8 mph - -   Partly Cloudy
4:20 AM 53.6 °F 51.8 °F 94% 29.92 in 6.2 mi South 4.6 mph - N/A   Scattered Clouds
4:50 AM 51.8 °F 51.8 °F 100% 29.92 in 6.2 mi South 5.8 mph - N/A   Partly Cloudy
5:20 AM 51.8 °F 51.8 °F 100% 29.95 in 6.2 mi SSE 4.6 mph - N/A   Mostly Cloudy
5:50 AM 53.6 °F 51.8 °F 94% 29.95 in 6.2 mi West 4.6 mph - N/A   Mostly Cloudy
6:20 AM 53.6 °F 51.8 °F 94% 29.95 in 6.2 mi WSW 2.3 mph - N/A   Scattered Clouds
6:50 AM 51.8 °F 50.0 °F 94% 29.95 in 6.2 mi WSW 2.3 mph - N/A   Scattered Clouds
7:00 AM 52 °F 51 °F 96% 29.99 in 22 mi WSW 2.3 mph - -   Partly Cloudy
7:20 AM 53.6 °F 51.8 °F 94% 29.98 in 6.2 mi SSW 4.6 mph - N/A   Scattered Clouds
7:50 AM 53.6 °F 51.8 °F 94% 29.98 in 6.2 mi WSW 3.5 mph - N/A   Partly Cloudy
8:20 AM 53.6 °F 51.8 °F 94% 29.98 in 6.2 mi SSW 2.3 mph - N/A   Partly Cloudy
8:50 AM 53.6 °F 51.8 °F 94% 30.01 in 6.2 mi Variable 2.3 mph - N/A   Mostly Cloudy
9:20 AM 53.6 °F 53.6 °F 100% 30.01 in 6.2 mi Variable 2.3 mph - N/A   Partly Cloudy
9:50 AM 55.4 °F 53.6 °F 94% 30.01 in 6.2 mi West 2.3 mph - N/A   Partly Cloudy
10:00 AM 55 °F 54 °F 94% 30.02 in 28 mi Calm Calm - -   Scattered Clouds
10:20 AM 55.4 °F 53.6 °F 94% 30.01 in 6.2 mi Calm Calm - N/A   Partly Cloudy
10:50 AM 57.2 °F 53.6 °F 88% 30.01 in 6.2 mi Calm Calm - N/A   Partly Cloudy
11:20 AM 57.2 °F 53.6 °F 88% 30.04 in 6.2 mi Variable 2.3 mph - N/A   Mostly Cloudy
11:50 AM 57.2 °F 53.6 °F 88% 30.04 in 6.2 mi East 4.6 mph - N/A   Scattered Clouds
12:20 PM 57.2 °F 53.6 °F 88% 30.01 in 6.2 mi ENE 4.6 mph - N/A Rain Light Rain
12:50 PM 57.2 °F 53.6 °F 88% 30.01 in 6.2 mi SE 5.8 mph - N/A Rain Light Rain
1:00 PM 57 °F 53 °F 84% 30.03 in 6 mi ESE 3.5 mph - - Rain Light Rain
1:20 PM 55.4 °F 53.6 °F 94% 30.01 in 6.2 mi SSE 6.9 mph - N/A   Mostly Cloudy
1:50 PM 57.2 °F 55.4 °F 94% 30.01 in 6.2 mi South 6.9 mph - N/A   Mostly Cloudy
2:20 PM 57.2 °F 55.4 °F 94% 30.01 in 6.2 mi South 5.8 mph - N/A   Mostly Cloudy
2:50 PM 57.2 °F 55.4 °F 94% 30.01 in 6.2 mi Variable 2.3 mph - N/A   Scattered Clouds
3:20 PM 57.2 °F 53.6 °F 88% 30.01 in 6.2 mi SE 4.6 mph - N/A   Mostly Cloudy
3:50 PM 55.4 °F 53.6 °F 94% 30.01 in 6.2 mi SE 6.9 mph - N/A   Mostly Cloudy
4:00 PM 56 °F 54 °F 89% 30.01 in 22 mi SE 5.8 mph - -   Partly Cloudy
4:20 PM 55.4 °F 53.6 °F 94% 30.01 in 6.2 mi SE 4.6 mph - N/A   Partly Cloudy
4:50 PM 55.4 °F 53.6 °F 94% 30.01 in 6.2 mi ESE 5.8 mph - N/A   Mostly Cloudy
5:20 PM 55.4 °F 53.6 °F 94% 30.01 in 6.2 mi ESE 6.9 mph - N/A   Scattered Clouds
5:50 PM 55.4 °F 53.6 °F 94% 30.01 in 6.2 mi ESE 6.9 mph - N/A   Partly Cloudy
6:20 PM 55.4 °F 53.6 °F 94% 30.01 in 6.2 mi East 6.9 mph - N/A Rain Light Rain
6:50 PM 53.6 °F 53.6 °F 100% 30.01 in 6.2 mi Variable 1.2 mph - N/A Rain Light Rain
7:00 PM 54 °F 53 °F 95% 30.02 in 16 mi East 3.5 mph - - Rain Light Rain
7:20 PM 53.6 °F 51.8 °F 94% 30.04 in 6.2 mi Variable 1.2 mph - N/A Rain Light Rain
7:50 PM 53.6 °F 53.6 °F 100% 30.01 in 6.2 mi ENE 3.5 mph - N/A Rain Light Rain
8:20 PM 53.6 °F 53.6 °F 100% 30.01 in 6.2 mi ENE 4.6 mph - N/A   Partly Cloudy
8:50 PM 53.6 °F 53.6 °F 100% 30.01 in 6.2 mi ENE 5.8 mph - N/A   Partly Cloudy
10:00 PM 54 °F 53 °F 96% 30.02 in 16 mi ENE 8.1 mph - -   Partly Cloudy